カタログに戻る

STARLINK-31106

運用中通信VLEO
NORAD 58689·PAYLOAD·🇺🇸 United States

打ち上げ Dec 29, 2023 から Cape Canaveral Space Force Station

Loading…

次のパス (今後24時間)

TLE

最新Source: CelesTrak SupGP

元期: Sep 15, 2026, 02:36 UTC

1 58689C 23211Y   26258.10881944  .00020798  00000+0  75327-3 0  2583
2 58689  42.9995  95.5415 0001487 269.3678  94.6464 15.27569447    10

AllMySatでSTARLINK-31106をリアルタイム追跡

Download on the App Store